Regional Weather Roundup
Issued by NWS Green Bay, WI

Home | Current Version | Previous Version | Graphics & Text | Print | Product List | Glossary Off
Versions: 1 2 3 4 5 6 7 8 9 10 11 12 13 14 15 16 17 18 19 20 21 22 23 24 25 26 27 28 29 30 31 32 33 34 35 36 37 38 39 40 41 42 43 44 45 46 47 48 49 50

000
ASUS43 KGRB 180700
RWRGRB

NORTH-CENTRAL AND NORTHEAST WISCONSIN REGIONAL WEATHER ROUNDUP
NATIONAL WEATHER SERVICE GREEN BAY WI
200 AM CDT MON JUN 18 2018

WIZ005-009-010>012-018-019-180800-
NORTH CENTRAL WISCONSIN

CITY           SKY/WX    TMP DP  RH WIND       PRES   REMARKS
IRONWOOD       FOG       65  65 100 NW7       29.88S VSB 1/4
MANITOWISH WTR NOT AVBL
ARBOR VITAE    NOT AVBL
EAGLE RIVER    DRIZZLE   67  67 100 CALM      29.87F
LAND O LAKES   NOT AVBL
RHINELANDER    CLOUDY    70  69  97 W7        29.88F
PHILLIPS       FOG       68  68 100 CALM      29.89F VSB 1/2
ANTIGO         LGT RAIN  69  69 100 W5        29.88S
TOMAHAWK       NOT AVBL
MERRILL        CLOUDY    70  70 100 W5        29.88R
$$

WIZ013-073-180800-
NORTHEAST WISCONSIN

CITY           SKY/WX    TMP DP  RH WIND       PRES   REMARKS
IRON MOUNTAIN  CLOUDY    69  67  93 SE3       29.83F
MARINETTE      FAIR      70  69  97 SW5       29.84S
$$

WIZ017-030-035>037-045-180800-
CENTRAL WISCONSIN

CITY           SKY/WX    TMP DP  RH WIND       PRES   REMARKS
MEDFORD        NOT AVBL
WAUSAU         MOCLDY    71  70  96 SW10      29.85F
MOSINEE        NOT AVBL
MARSHFIELD     LGT RAIN  71  70  96 S9        29.86F
WISC RAPIDS    CLOUDY    72  70  93 S6        29.89F
STEVENS POINT  NOT AVBL
WAUPACA        NOT AVBL
SHAWANO        LGT RAIN  73  71  93 SW5       29.86R
CLINTONVILLE   NOT AVBL
WAUTOMA        LGT RAIN  72  71  97 NW6       29.92F
$$

WIZ038-039-048-051-180800-
FOX VALLEY

CITY           SKY/WX    TMP DP  RH WIND       PRES   REMARKS
NWS GREEN BAY  LGT RAIN  72  71  97 SW8       29.87S
APPLETON       NOT AVBL
OSHKOSH        TSTM      72  72 100 CALM      29.92S FOG
FOND DU LAC    HVY RAIN  73  70  90 N9        29.91R FOG
$$

WIZ022-050-052-180800-
EAST CENTRAL WISCONSIN

CITY           SKY/WX    TMP DP  RH WIND       PRES   REMARKS
EPHRAIM        NOT AVBL
WASHINGTON ISL NOT AVBL
STURGEON BAY   LGT RAIN  67  67 100 S10       29.86S
MANITOWOC      LGT RAIN  70  69  97 S9        29.91S
SHEBOYGAN      MOCLDY    69  67  93 NE12      29.92R
$$

LMZ563-521-522-541>543-180800-
LAKESHORE

STATION/POSITION TIME  TEMP    WIND        PRES    VSBY  WAVE
                       AIR SEA DIR/SP/G                  HT/PER
                 (UTC) (F)     (DEG/KT/KT) (MB)    (MI)  (FT/S)
SHEBOYGAN LKSHOR 0600   70     360/ 19/ 24 1011.9R
KEWAUNEE LKSHORE 0630   61     180/ 12/ 14 1011.7F
NORTHPORT PIER   0640   62     150/  4/  5 1010.5S
N MID LAKE BUOY  0650   51 42  180/  8/ 10 1010.1R         2/ 5
S GREEN BAY BUOY 0630   70 68  190/ 14/ 16 1010.3F
MENOMINEE LKSHOR 0630   69     190/  7/  9 1010.5R
$$




USA.gov is the U.S. government's official web portal to all federal, state and local government web resources and services.